Regional Weather Roundup
Issued by NWS State College, PA

Home | Current Version | Previous Version | Text Only | Print | Product List | Glossary On
Versions: 1 2 3 4 5 6 7 8 9 10 11 12 13 14 15 16 17 18 19 20 21 22 23 24 25 26 27 28 29 30 31 32 33 34 35 36 37 38 39 40 41 42 43 44 45 46 47 48 49 50
000
ASUS41 KCTP 312310
RWRCTP

REGIONAL WEATHER ROUNDUP
NATIONAL WEATHER SERVICE STATE COLLEGE PA
700 PM EDT FRI JUL 31 2015

Note: "fair" indicates few or no clouds below 12,000 feet with no
significant weather and/or obstructions to visibility.

* = STATION THAT DOES NOT REPORT PRECIPITATION /E.G. RAIN...SNOW...ETC/
    THUNDER OR FOG.

PAZ002>004-007>009-013>016-020>023-029>032-010000-
WESTERN PENNSYLVANIA

CITY           SKY/WX    TMP DP  RH WIND       PRES   REMARKS
ERIE           CLOUDY    81  56  42 SW12G22   29.83F
MEADVILLE      SUNNY     81  50  33 W10       29.88F
FRANKLIN*      SUNNY     81  54  39 W6        29.90F
NEW CASTLE     FAIR      84  56  38 W10       29.88F
BEAVER COUNTY  NOT AVBL
BUTLER*        SUNNY     82  55  39 W13       29.91S
PITTSBURGH INT MOSUNNY   83  57  41 W9        29.90F
PITTSBURGH     MOSUNNY   82  53  36 SW18      29.90F
INDIANA*       PTSUNNY   81  61  50 W8G15     29.93S
LATROBE        PTSUNNY   81  59  47 W12       29.91F
WASHINGTON CO* NOT AVBL
$$

PAZ004>006-010>012-017>019-024>028-033>037-041-042-045-046-049>053-010000-
CENTRAL PENNSYLVANIA

CITY           SKY/WX    TMP DP  RH WIND       PRES   REMARKS
BRADFORD       SUNNY     77  55  46 W9        29.89F
DUBOIS         SUNNY     80  55  42 W9        29.89F
CLEARFIELD     SUNNY     80  55  42 W13G21    29.88F
JOHNSTOWN      MOSUNNY   77  56  48 W16G22    29.95F
ALTOONA        PTSUNNY   80  59  48 W5        29.91F
STATE COLLEGE  SUNNY     77  61  57 W9        29.87F
WILLIAMSPORT   MOSUNNY   95  59  30 SW8       29.80F
SELINSGROVE    SUNNY     82  62  50 VRB3      29.83F
FT INDIANTOWN  SUNNY     84  61  45 W6        29.84F
CAPITAL CITY   SUNNY     86  57  37 SW7       29.84S
HARRISBURG     MOSUNNY   85  62  46 SW5       29.83F
YORK           SUNNY     83  63  50 CALM      29.85F
$$

PAZ038>040-043-044-047-048-054-055-060>062-067>071-010000-
EASTERN PENNSYLVANIA

CITY           SKY/WX    TMP DP  RH WIND       PRES   REMARKS
SCRANTON       MOSUNNY   84  56  38 W10       29.83F
MOUNT POCONO   SUNNY     77  56  48 W8        29.90F
ALLENTOWN      SUNNY     83  59  44 W8        29.83S
QUAKERTOWN*    CLEAR     84  59  42 W6        29.85S
READING        SUNNY     84  60  44 W6        29.83F
LANCASTER      SUNNY     83  59  44 W9        29.84F
COATESVILLE    CLEAR     81  59  47 SW3       29.87S
POTTSTOWN      SUNNY     83  58  42 W7        29.85F
BLUE BELL      SUNNY     84  59  42 W3        29.83S
DOYLESTOWN     SUNNY     83  56  39 SW5       29.83S
WILLOW GROVE   NOT AVBL
NORTH PHILA    SUNNY     88  52  29 W12       29.83F
PHILADELPHIA   MOSUNNY   89  54  30 NW12      29.83S
$$



USA.gov is the U.S. government's official web portal to all federal, state and local government web resources and services.